Regional Weather Roundup
Issued by NWS

Home | Current Version | Previous Version | Graphics & Text | Print | Product List | Glossary On
Versions: 1 2 3 4 5 6 7 8 9 10 11 12 13 14 15 16 17 18 19 20 21 22 23 24 25 26 27 28 29 30 31 32 33 34 35 36 37 38 39 40 41 42 43 44 45 46 47 48 49 50
000
ASUS43 KFSD 221110
RWRSD

WEATHER ROUNDUP FOR SOUTH DAKOTA
NATIONAL WEATHER SERVICE SIOUX FALLS SD
500 AM CST SAT NOV 22 2014

NOTE: "FAIR" INDICATES FEW OR NO CLOUDS BELOW 12,000 FEET WITH NO
SIGNIFICANT WEATHER AND/OR OBSTRUCTIONS TO VISIBILITY.


SDZ001>005-009-010-012>017-221200-
NORTHWEST AND NORTH CENTRAL SOUTH DAKOTA

CITY           SKY/WX    TMP DP  RH WIND       PRES   REMARKS
BUFFALO          N/A     33  22  63 CALM      29.50F
FAITH            N/A     26  21  81 S15       29.61F WCI  14
MOBRIDGE       CLEAR     28  25  88 SE7       29.63F WCI  21
$$

SDZ012>016-024>037-041>051-057-063-072>074-221200-
SOUTHWEST AND SOUTH CENTRAL SOUTH DAKOTA

CITY           SKY/WX    TMP DP  RH WIND       PRES   REMARKS
RAPID CTY ARPT CLEAR     24  19  81 SE3       29.62F
PIERRE         FOG       25  24  96 SE5       29.69F VSB 3/4 WCI  19
CUSTER         CLEAR     34  20  56 W10       29.64F WCI  26
ELLSWORTH AFB  CLEAR     31  22  70 SW13      29.60F WCI  21
PHILIP         CLEAR     28  20  71 SE3       29.67F
PINE RIDGE     CLEAR     17  14  88 CALM      29.70F
SPEARFISH      FAIR      36  23  60 SE3       29.58F
WINNER         FAIR      34  24  67 SW9       29.72F WCI  27
$$

SDZ004>011-016>023-039-040-221200-
NORTHEAST SOUTH DAKOTA

CITY           SKY/WX    TMP DP  RH WIND       PRES   REMARKS
ABERDEEN       CLEAR     22  19  89 S10       29.69F WCI  11
WATERTOWN      CLEAR     24  22  91 S10       29.72F WCI  14
SISSETON         N/A     34  27  75 CALM      29.66F
$$

SDZ017-020-022-023-036>040-048>070-221200-
SOUTHEAST SOUTH DAKOTA

CITY           SKY/WX    TMP DP  RH WIND       PRES   REMARKS
SIOUX FALLS    PTCLDY    31  29  92 SW7       29.78F WCI  24
HURON          CLEAR     25  24  96 S5        29.73F FOG     WCI  19
CHAMBERLAIN    CLEAR     20  19  95 CALM      29.73F
MITCHELL       CLEAR     26  24  92 S7        29.75F FOG     WCI  18
YANKTON        CLEAR     30  28  93 S8        29.79F WCI  23
$$

ABBREVIATIONS USED IN REMARKS
   TC - TEMPERATURE IN CELSIUS
  WCI - WIND CHILL INDEX
   HX - HEAT INDEX
  VSB - VISIBILITY




USA.gov is the U.S. government's official web portal to all federal, state and local government web resources and services.